Year,Month,Day,Hour,Minute,Value (Times are PST for temperature in C)
2006,07,17,00,00,15.00
2006,07,17,00,01,15.00
2006,07,17,00,02,15.00
2006,07,17,00,03,15.00
2006,07,17,00,04,14.90
2006,07,17,00,05,14.90
2006,07,17,00,06,14.90
2006,07,17,00,07,14.90
2006,07,17,00,08,14.90
2006,07,17,00,09,14.90
2006,07,17,00,10,14.90
2006,07,17,00,11,14.90
2006,07,17,00,12,14.90
2006,07,17,00,13,14.90
2006,07,17,00,14,14.90
2006,07,17,00,15,14.90
2006,07,17,00,16,14.90
2006,07,17,00,17,14.90
2006,07,17,00,18,14.90
2006,07,17,00,19,14.90
2006,07,17,00,20,14.90
2006,07,17,00,21,14.90
2006,07,17,00,22,14.90
2006,07,17,00,23,14.90
2006,07,17,00,24,14.90
2006,07,17,00,25,14.90
2006,07,17,00,26,14.90
2006,07,17,00,27,14.90
2006,07,17,00,28,14.80
2006,07,17,00,29,14.80
2006,07,17,00,30,14.80
2006,07,17,00,31,14.80
2006,07,17,00,32,14.80
2006,07,17,00,33,14.80
2006,07,17,00,34,14.80
2006,07,17,00,35,14.80
2006,07,17,00,36,14.80
2006,07,17,00,37,14.80
2006,07,17,00,38,14.80
2006,07,17,00,39,14.80
2006,07,17,00,40,14.80
2006,07,17,00,41,14.80
2006,07,17,00,42,14.80
2006,07,17,00,43,14.70
2006,07,17,00,44,14.70
2006,07,17,00,45,14.70
2006,07,17,00,46,14.70
2006,07,17,00,47,14.70
2006,07,17,00,48,14.60
2006,07,17,00,49,14.60
2006,07,17,00,50,14.60
2006,07,17,00,51,14.50
2006,07,17,00,52,14.50
2006,07,17,00,53,14.50
2006,07,17,00,54,14.50
2006,07,17,00,55,14.50
2006,07,17,00,56,14.40
2006,07,17,00,57,14.40
2006,07,17,00,58,14.40
2006,07,17,00,59,14.40
2006,07,17,01,00,14.40
2006,07,17,01,01,14.40
2006,07,17,01,02,14.40
2006,07,17,01,03,14.40
2006,07,17,01,04,14.30
2006,07,17,01,05,14.30
2006,07,17,01,06,14.30
2006,07,17,01,07,14.20
2006,07,17,01,08,14.20
2006,07,17,01,09,14.20
2006,07,17,01,10,14.20
2006,07,17,01,11,14.20
2006,07,17,01,12,14.20
2006,07,17,01,13,14.10
2006,07,17,01,14,14.10
2006,07,17,01,15,14.10
2006,07,17,01,16,14.00
2006,07,17,01,17,14.00
2006,07,17,01,18,14.00
2006,07,17,01,19,14.00
2006,07,17,01,20,14.00
2006,07,17,01,21,13.90
2006,07,17,01,22,13.90
2006,07,17,01,23,13.90
2006,07,17,01,24,13.90
2006,07,17,01,25,13.90
2006,07,17,01,26,13.90
2006,07,17,01,27,13.90
2006,07,17,01,28,13.90
2006,07,17,01,29,13.90
2006,07,17,01,30,13.90
2006,07,17,01,31,13.90
2006,07,17,01,32,13.90
2006,07,17,01,33,14.00
2006,07,17,01,34,14.00
2006,07,17,01,35,14.00
2006,07,17,01,36,14.00
2006,07,17,01,37,14.00
2006,07,17,01,38,14.00
2006,07,17,01,39,14.10
2006,07,17,01,40,14.10
2006,07,17,01,41,14.10
2006,07,17,01,42,14.10
2006,07,17,01,43,14.10
2006,07,17,01,44,14.00
2006,07,17,01,45,14.00
2006,07,17,01,46,14.00
2006,07,17,01,47,14.00
2006,07,17,01,48,14.10
2006,07,17,01,49,14.10
2006,07,17,01,50,14.10
2006,07,17,01,51,14.10
2006,07,17,01,52,14.10
2006,07,17,01,53,14.10
2006,07,17,01,54,14.10
2006,07,17,01,55,14.10
2006,07,17,01,56,14.10
2006,07,17,01,57,14.10
2006,07,17,01,58,14.10
2006,07,17,01,59,14.20
2006,07,17,02,00,14.20
2006,07,17,02,01,14.20
2006,07,17,02,02,14.20
2006,07,17,02,03,14.20
2006,07,17,02,04,14.20
2006,07,17,02,05,14.20
2006,07,17,02,06,14.20
2006,07,17,02,07,14.20
2006,07,17,02,08,14.20
2006,07,17,02,09,14.20
2006,07,17,02,10,14.20
2006,07,17,02,11,14.20
2006,07,17,02,12,14.20
2006,07,17,02,13,14.20
2006,07,17,02,14,14.20
2006,07,17,02,15,14.20
2006,07,17,02,16,14.10
2006,07,17,02,17,14.10
2006,07,17,02,18,14.10
2006,07,17,02,19,14.10
2006,07,17,02,20,14.10
2006,07,17,02,21,14.10
2006,07,17,02,22,14.10
2006,07,17,02,23,14.10
2006,07,17,02,24,14.10
2006,07,17,02,25,14.10
2006,07,17,02,26,14.10
2006,07,17,02,27,14.10
2006,07,17,02,28,14.10
2006,07,17,02,29,14.10
2006,07,17,02,30,14.10
2006,07,17,02,31,14.10
2006,07,17,02,32,14.10
2006,07,17,02,33,14.10
2006,07,17,02,34,14.10
2006,07,17,02,35,14.10
2006,07,17,02,36,14.10
2006,07,17,02,37,14.10
2006,07,17,02,38,14.00
2006,07,17,02,39,14.00
2006,07,17,02,40,14.00
2006,07,17,02,41,14.00
2006,07,17,02,42,14.00
2006,07,17,02,43,14.00
2006,07,17,02,44,14.00
2006,07,17,02,45,13.90
2006,07,17,02,46,13.90
2006,07,17,02,47,13.90
2006,07,17,02,48,13.90
2006,07,17,02,49,13.90
2006,07,17,02,50,13.90
2006,07,17,02,51,13.90
2006,07,17,02,52,13.90
2006,07,17,02,53,13.90
2006,07,17,02,54,13.90
2006,07,17,02,55,13.90
2006,07,17,02,56,13.90
2006,07,17,02,57,13.90
2006,07,17,02,58,13.90
2006,07,17,02,59,13.90
2006,07,17,03,00,13.90
2006,07,17,03,01,13.90
2006,07,17,03,02,13.90
2006,07,17,03,03,13.90
2006,07,17,03,04,13.90
2006,07,17,03,05,13.80
2006,07,17,03,06,13.80
2006,07,17,03,07,13.80
2006,07,17,03,08,13.80
2006,07,17,03,09,13.70
2006,07,17,03,10,13.70
2006,07,17,03,11,13.70
2006,07,17,03,12,13.70
2006,07,17,03,13,13.70
2006,07,17,03,14,13.70
2006,07,17,03,15,13.70
2006,07,17,03,16,13.70
2006,07,17,03,17,13.70
2006,07,17,03,18,13.70
2006,07,17,03,19,13.60
2006,07,17,03,20,13.60
2006,07,17,03,21,13.60
2006,07,17,03,22,13.60
2006,07,17,03,23,13.60
2006,07,17,03,24,13.60
2006,07,17,03,25,13.60
2006,07,17,03,26,13.60
2006,07,17,03,27,13.60
2006,07,17,03,28,13.50
2006,07,17,03,29,13.50
2006,07,17,03,30,13.50
2006,07,17,03,31,13.50
2006,07,17,03,32,13.50
2006,07,17,03,33,13.50
2006,07,17,03,34,13.50
2006,07,17,03,35,13.50
2006,07,17,03,36,13.50
2006,07,17,03,37,13.50
2006,07,17,03,38,13.40
2006,07,17,03,39,13.40
2006,07,17,03,40,13.40
2006,07,17,03,41,13.40
2006,07,17,03,42,13.40
2006,07,17,03,43,13.30
2006,07,17,03,44,13.30
2006,07,17,03,45,13.30
2006,07,17,03,46,13.30
2006,07,17,03,47,13.30
2006,07,17,03,48,13.30
2006,07,17,03,49,13.30
2006,07,17,03,50,13.30
2006,07,17,03,51,13.30
2006,07,17,03,52,13.20
2006,07,17,03,53,13.20
2006,07,17,03,54,13.20
2006,07,17,03,55,13.20
2006,07,17,03,56,13.20
2006,07,17,03,57,13.20
2006,07,17,03,58,13.20
2006,07,17,03,59,13.20
2006,07,17,04,00,13.20
2006,07,17,04,01,13.20
2006,07,17,04,02,13.20
2006,07,17,04,03,13.20
2006,07,17,04,04,13.20
2006,07,17,04,05,13.20
2006,07,17,04,06,13.20
2006,07,17,04,07,13.20
2006,07,17,04,08,13.20
2006,07,17,04,09,13.10
2006,07,17,04,10,13.10
2006,07,17,04,11,13.20
2006,07,17,04,12,13.10
2006,07,17,04,13,13.10
2006,07,17,04,14,13.10
2006,07,17,04,15,13.10
2006,07,17,04,16,13.10
2006,07,17,04,17,13.10
2006,07,17,04,18,13.10
2006,07,17,04,19,13.10
2006,07,17,04,20,13.10
2006,07,17,04,21,13.10
2006,07,17,04,22,13.00
2006,07,17,04,23,13.00
2006,07,17,04,24,13.00
2006,07,17,04,25,13.00
2006,07,17,04,26,13.00
2006,07,17,04,27,13.00
2006,07,17,04,28,13.00
2006,07,17,04,29,13.00
2006,07,17,04,30,13.00
2006,07,17,04,31,13.00
2006,07,17,04,32,13.00
2006,07,17,04,33,13.00
2006,07,17,04,34,13.00
2006,07,17,04,35,13.00
2006,07,17,04,36,13.00
2006,07,17,04,37,13.00
2006,07,17,04,38,13.00
2006,07,17,04,39,13.00
2006,07,17,04,40,13.00
2006,07,17,04,41,13.00
2006,07,17,04,42,13.00
2006,07,17,04,43,12.90
2006,07,17,04,44,12.90
2006,07,17,04,45,12.90
2006,07,17,04,46,12.90
2006,07,17,04,47,12.90
2006,07,17,04,48,12.90
2006,07,17,04,49,12.90
2006,07,17,04,50,12.90
2006,07,17,04,51,13.00
2006,07,17,04,52,13.00
2006,07,17,04,53,13.00
2006,07,17,04,54,13.00
2006,07,17,04,55,13.00
2006,07,17,04,56,13.00
2006,07,17,04,57,13.00
2006,07,17,04,58,13.00
2006,07,17,04,59,13.00
2006,07,17,05,00,13.00
2006,07,17,05,01,13.00
2006,07,17,05,02,13.00
2006,07,17,05,03,13.00
2006,07,17,05,04,13.00
2006,07,17,05,05,13.00
2006,07,17,05,06,13.00
2006,07,17,05,07,12.90
2006,07,17,05,08,12.90
2006,07,17,05,09,12.90
2006,07,17,05,10,12.90
2006,07,17,05,11,12.90
2006,07,17,05,12,12.90
2006,07,17,05,13,12.90
2006,07,17,05,14,12.90
2006,07,17,05,15,12.90
2006,07,17,05,16,12.90
2006,07,17,05,17,12.90
2006,07,17,05,18,12.90
2006,07,17,05,19,12.90
2006,07,17,05,20,12.90
2006,07,17,05,21,12.90
2006,07,17,05,22,12.90
2006,07,17,05,23,12.90
2006,07,17,05,24,12.90
2006,07,17,05,25,12.90
2006,07,17,05,26,12.90
2006,07,17,05,27,12.90
2006,07,17,05,28,12.90
2006,07,17,05,29,12.90
2006,07,17,05,30,12.90
2006,07,17,05,31,12.90
2006,07,17,05,32,12.90
2006,07,17,05,33,12.90
2006,07,17,05,34,12.90
2006,07,17,05,35,12.90
2006,07,17,05,36,12.90
2006,07,17,05,37,12.90
2006,07,17,05,38,12.90
2006,07,17,05,39,12.90
2006,07,17,05,40,12.90
2006,07,17,05,41,12.90
2006,07,17,05,42,12.90
2006,07,17,05,43,12.90
2006,07,17,05,44,12.90
2006,07,17,05,45,12.90
2006,07,17,05,46,12.90
2006,07,17,05,47,12.90
2006,07,17,05,48,12.90
2006,07,17,05,49,12.90
2006,07,17,05,50,12.90
2006,07,17,05,51,13.00
2006,07,17,05,52,13.00
2006,07,17,05,53,13.00
2006,07,17,05,54,13.00
2006,07,17,05,55,13.00
2006,07,17,05,56,13.00
2006,07,17,05,57,13.00
2006,07,17,05,58,13.00
2006,07,17,05,59,13.00
2006,07,17,06,00,13.10
2006,07,17,06,01,13.10
2006,07,17,06,02,13.10
2006,07,17,06,03,13.10
2006,07,17,06,04,13.10
2006,07,17,06,05,13.10
2006,07,17,06,06,13.10
2006,07,17,06,07,13.10
2006,07,17,06,08,13.20
2006,07,17,06,09,13.20
2006,07,17,06,10,13.20
2006,07,17,06,11,13.20
2006,07,17,06,12,13.20
2006,07,17,06,13,13.20
2006,07,17,06,14,13.20
2006,07,17,06,15,13.30
2006,07,17,06,16,13.30
2006,07,17,06,17,13.30
2006,07,17,06,18,13.30
2006,07,17,06,19,13.30
2006,07,17,06,20,13.30
2006,07,17,06,21,13.30
2006,07,17,06,22,13.30
2006,07,17,06,23,13.40
2006,07,17,06,24,13.40
2006,07,17,06,25,13.40
2006,07,17,06,26,13.50
2006,07,17,06,27,13.50
2006,07,17,06,28,13.50
2006,07,17,06,29,13.50
2006,07,17,06,30,13.50
2006,07,17,06,31,13.50
2006,07,17,06,32,13.50
2006,07,17,06,33,13.60
2006,07,17,06,34,13.60
2006,07,17,06,35,13.70
2006,07,17,06,36,13.70
2006,07,17,06,37,13.70
2006,07,17,06,38,13.70
2006,07,17,06,39,13.70
2006,07,17,06,40,13.70
2006,07,17,06,41,13.80
2006,07,17,06,42,13.80
2006,07,17,06,43,13.80
2006,07,17,06,44,13.80
2006,07,17,06,45,13.90
2006,07,17,06,46,13.90
2006,07,17,06,47,13.90
2006,07,17,06,48,14.00
2006,07,17,06,49,14.00
2006,07,17,06,50,14.10
2006,07,17,06,51,14.10
2006,07,17,06,52,14.10
2006,07,17,06,53,14.10
2006,07,17,06,54,14.10
2006,07,17,06,55,14.10
2006,07,17,06,56,14.20
2006,07,17,06,57,14.20
2006,07,17,06,58,14.20
2006,07,17,06,59,14.20
2006,07,17,07,00,14.20
2006,07,17,07,01,14.20
2006,07,17,07,02,14.20
2006,07,17,07,03,14.30
2006,07,17,07,04,14.30
2006,07,17,07,05,14.40
2006,07,17,07,06,14.40
2006,07,17,07,07,14.40
2006,07,17,07,08,14.30
2006,07,17,07,09,14.40
2006,07,17,07,10,14.40
2006,07,17,07,11,14.40
2006,07,17,07,12,14.40
2006,07,17,07,13,14.40
2006,07,17,07,14,14.40
2006,07,17,07,15,14.40
2006,07,17,07,16,14.40
2006,07,17,07,17,14.50
2006,07,17,07,18,14.50
2006,07,17,07,19,14.50
2006,07,17,07,20,14.50
2006,07,17,07,21,14.50
2006,07,17,07,22,14.50
2006,07,17,07,23,14.50
2006,07,17,07,24,14.60
2006,07,17,07,25,14.60
2006,07,17,07,26,14.60
2006,07,17,07,27,14.70
2006,07,17,07,28,14.70
2006,07,17,07,29,14.70
2006,07,17,07,30,14.70
2006,07,17,07,31,14.70
2006,07,17,07,32,14.80
2006,07,17,07,33,14.80
2006,07,17,07,34,14.80
2006,07,17,07,35,14.80
2006,07,17,07,36,14.80
2006,07,17,07,37,14.80
2006,07,17,07,38,14.80
2006,07,17,07,39,14.80
2006,07,17,07,40,14.90
2006,07,17,07,41,15.00
2006,07,17,07,42,15.00
2006,07,17,07,43,15.00
2006,07,17,07,44,15.00
2006,07,17,07,45,15.00
2006,07,17,07,46,15.00
2006,07,17,07,47,15.00
2006,07,17,07,48,15.10
2006,07,17,07,49,15.10
2006,07,17,07,50,15.10
2006,07,17,07,51,15.10
2006,07,17,07,52,15.10
2006,07,17,07,53,15.10
2006,07,17,07,54,15.10
2006,07,17,07,55,15.20
2006,07,17,07,56,15.20
2006,07,17,07,57,15.30
2006,07,17,07,58,15.30
2006,07,17,07,59,15.30
2006,07,17,08,00,15.30
2006,07,17,08,01,15.30
2006,07,17,08,02,15.30
2006,07,17,08,03,15.40
2006,07,17,08,04,15.40
2006,07,17,08,05,15.40
2006,07,17,08,06,15.40
2006,07,17,08,07,15.40
2006,07,17,08,08,15.40
2006,07,17,08,09,15.40
2006,07,17,08,10,15.40
2006,07,17,08,11,15.40
2006,07,17,08,12,15.50
2006,07,17,08,13,15.50
2006,07,17,08,14,15.50
2006,07,17,08,15,15.50
2006,07,17,08,16,15.60
2006,07,17,08,17,15.60
2006,07,17,08,18,15.60
2006,07,17,08,19,15.70
2006,07,17,08,20,15.70
2006,07,17,08,21,15.70
2006,07,17,08,22,15.70
2006,07,17,08,23,15.70
2006,07,17,08,24,15.80
2006,07,17,08,25,15.80
2006,07,17,08,26,15.80
2006,07,17,08,27,15.80
2006,07,17,08,28,15.90
2006,07,17,08,29,15.90
2006,07,17,08,30,15.90
2006,07,17,08,31,15.90
2006,07,17,08,32,16.00
2006,07,17,08,33,16.10
2006,07,17,08,34,16.20
2006,07,17,08,35,16.20
2006,07,17,08,36,16.30
2006,07,17,08,37,16.30
2006,07,17,08,38,16.20
2006,07,17,08,39,16.20
2006,07,17,08,40,16.30
2006,07,17,08,41,16.30
2006,07,17,08,42,16.30
2006,07,17,08,43,16.40
2006,07,17,08,44,16.40
2006,07,17,08,45,16.40
2006,07,17,08,46,16.50
2006,07,17,08,47,16.60
2006,07,17,08,48,16.50
2006,07,17,08,49,16.40
2006,07,17,08,50,16.40
2006,07,17,08,51,16.40
2006,07,17,08,52,16.40
2006,07,17,08,53,16.40
2006,07,17,08,54,16.60
2006,07,17,08,55,16.70
2006,07,17,08,56,16.70
2006,07,17,08,57,16.70
2006,07,17,08,58,16.70
2006,07,17,08,59,16.70
2006,07,17,09,00,16.70
2006,07,17,09,01,16.70
2006,07,17,09,02,16.70
2006,07,17,09,03,16.80
2006,07,17,09,04,16.90
2006,07,17,09,05,16.90
2006,07,17,09,06,16.90
2006,07,17,09,07,16.90
2006,07,17,09,08,16.80
2006,07,17,09,09,16.70
2006,07,17,09,10,16.80
2006,07,17,09,11,16.90
2006,07,17,09,12,16.90
2006,07,17,09,13,17.00
2006,07,17,09,14,17.00
2006,07,17,09,15,17.00
2006,07,17,09,16,17.00
2006,07,17,09,17,17.00
2006,07,17,09,18,17.00
2006,07,17,09,19,17.00
2006,07,17,09,20,17.00
2006,07,17,09,21,16.90
2006,07,17,09,22,16.90
2006,07,17,09,23,16.90
2006,07,17,09,24,16.90
2006,07,17,09,25,16.90
2006,07,17,09,26,16.80
2006,07,17,09,27,16.80
2006,07,17,09,28,16.80
2006,07,17,09,29,16.80
2006,07,17,09,30,16.80
2006,07,17,09,31,17.00
2006,07,17,09,32,17.00
2006,07,17,09,33,17.10
2006,07,17,09,34,17.10
2006,07,17,09,35,17.20
2006,07,17,09,36,17.20
2006,07,17,09,37,17.30
2006,07,17,09,38,17.30
2006,07,17,09,39,17.30
2006,07,17,09,40,17.30
2006,07,17,09,41,17.30
2006,07,17,09,42,17.30
2006,07,17,09,43,17.30
2006,07,17,09,44,17.30
2006,07,17,09,45,17.30
2006,07,17,09,46,17.30
2006,07,17,09,47,17.30
2006,07,17,09,48,17.30
2006,07,17,09,49,17.30
2006,07,17,09,50,17.40
2006,07,17,09,51,17.50
2006,07,17,09,52,17.50
2006,07,17,09,53,17.40
2006,07,17,09,54,17.50
2006,07,17,09,55,17.60
2006,07,17,09,56,17.70
2006,07,17,09,57,17.70
2006,07,17,09,58,17.80
2006,07,17,09,59,17.80
2006,07,17,10,00,17.90
2006,07,17,10,01,17.90
2006,07,17,10,02,17.80
2006,07,17,10,03,17.90
2006,07,17,10,04,17.90
2006,07,17,10,05,17.90
2006,07,17,10,06,17.80
2006,07,17,10,07,17.70
2006,07,17,10,08,17.70
2006,07,17,10,09,17.60
2006,07,17,10,10,17.60
2006,07,17,10,11,17.50
2006,07,17,10,12,17.60
2006,07,17,10,13,17.60
2006,07,17,10,14,17.60
2006,07,17,10,15,17.60
2006,07,17,10,16,17.60
2006,07,17,10,17,17.70
2006,07,17,10,18,17.70
2006,07,17,10,19,17.80
2006,07,17,10,20,17.90
2006,07,17,10,21,17.90
2006,07,17,10,22,17.90
2006,07,17,10,23,18.00
2006,07,17,10,24,18.10
2006,07,17,10,25,18.10
2006,07,17,10,26,18.10
2006,07,17,10,27,18.20
2006,07,17,10,28,18.10
2006,07,17,10,29,18.00
2006,07,17,10,30,17.90
2006,07,17,10,31,17.90
2006,07,17,10,32,17.90
2006,07,17,10,33,17.90
2006,07,17,10,34,17.80
2006,07,17,10,35,17.80
2006,07,17,10,36,17.70
2006,07,17,10,37,17.70
2006,07,17,10,38,17.80
2006,07,17,10,39,17.70
2006,07,17,10,40,17.70
2006,07,17,10,41,17.70
2006,07,17,10,42,17.70
2006,07,17,10,43,17.80
2006,07,17,10,44,17.70
2006,07,17,10,45,17.60
2006,07,17,10,46,17.60
2006,07,17,10,47,17.60
2006,07,17,10,48,17.60
2006,07,17,10,49,17.50
2006,07,17,10,50,17.60
2006,07,17,10,51,17.60
2006,07,17,10,52,17.60
2006,07,17,10,53,17.70
2006,07,17,10,54,17.80
2006,07,17,10,55,17.80
2006,07,17,10,56,17.80
2006,07,17,10,57,17.90
2006,07,17,10,58,17.90
2006,07,17,10,59,17.80
2006,07,17,11,00,17.80
2006,07,17,11,01,17.80
2006,07,17,11,02,17.80
2006,07,17,11,03,17.80
2006,07,17,11,04,17.80
2006,07,17,11,05,17.80
2006,07,17,11,06,17.90
2006,07,17,11,07,17.90
2006,07,17,11,08,17.90
2006,07,17,11,09,18.00
2006,07,17,11,10,18.10
2006,07,17,11,11,18.10
2006,07,17,11,12,18.20
2006,07,17,11,13,18.20
2006,07,17,11,14,18.30
2006,07,17,11,15,18.30
2006,07,17,11,16,18.40
2006,07,17,11,17,18.50
2006,07,17,11,18,18.50
2006,07,17,11,19,18.60
2006,07,17,11,20,18.50
2006,07,17,11,21,18.50
2006,07,17,11,22,18.50
2006,07,17,11,23,18.40
2006,07,17,11,24,18.50
2006,07,17,11,25,18.60
2006,07,17,11,26,18.50
2006,07,17,11,27,18.40
2006,07,17,11,28,18.30
2006,07,17,11,29,18.30
2006,07,17,11,30,18.40
2006,07,17,11,31,18.50
2006,07,17,11,32,18.50
2006,07,17,11,33,18.50
2006,07,17,11,34,18.50
2006,07,17,11,35,18.50
2006,07,17,11,36,18.50
2006,07,17,11,37,18.40
2006,07,17,11,38,18.40
2006,07,17,11,39,18.40
2006,07,17,11,40,18.40
2006,07,17,11,41,18.30
2006,07,17,11,42,18.30
2006,07,17,11,43,18.30
2006,07,17,11,44,18.20
2006,07,17,11,45,18.20
2006,07,17,11,46,18.20
2006,07,17,11,47,18.20
2006,07,17,11,48,18.30
2006,07,17,11,49,18.40
2006,07,17,11,50,18.50
2006,07,17,11,51,18.60
2006,07,17,11,52,18.70
2006,07,17,11,53,18.80
2006,07,17,11,54,18.80
2006,07,17,11,55,18.90
2006,07,17,11,56,19.10
2006,07,17,11,57,19.10
2006,07,17,11,58,19.00
2006,07,17,11,59,18.90
2006,07,17,12,00,18.90
2006,07,17,12,01,18.90
2006,07,17,12,02,18.90
2006,07,17,12,03,18.90
2006,07,17,12,04,18.90
2006,07,17,12,05,18.80
2006,07,17,12,06,18.90
2006,07,17,12,07,18.70
2006,07,17,12,08,18.70
2006,07,17,12,09,18.70
2006,07,17,12,10,18.70
2006,07,17,12,11,18.70
2006,07,17,12,12,18.70
2006,07,17,12,13,18.70
2006,07,17,12,14,18.90
2006,07,17,12,15,18.90
2006,07,17,12,16,19.10
2006,07,17,12,17,19.20
2006,07,17,12,18,19.30
2006,07,17,12,19,19.30
2006,07,17,12,20,19.40
2006,07,17,12,21,19.40
2006,07,17,12,22,19.30
2006,07,17,12,23,19.30
2006,07,17,12,24,19.30
2006,07,17,12,25,19.30
2006,07,17,12,26,19.30
2006,07,17,12,27,19.20
2006,07,17,12,28,19.30
2006,07,17,12,29,19.30
2006,07,17,12,30,19.20
2006,07,17,12,31,19.20
2006,07,17,12,32,19.20
2006,07,17,12,33,19.30
2006,07,17,12,34,19.40
2006,07,17,12,35,19.50
2006,07,17,12,36,19.60
2006,07,17,12,37,19.80
2006,07,17,12,38,19.80
2006,07,17,12,39,19.90
2006,07,17,12,40,19.80
2006,07,17,12,41,19.80
2006,07,17,12,42,19.80
2006,07,17,12,43,19.80
2006,07,17,12,44,19.80
2006,07,17,12,45,19.80
2006,07,17,12,46,19.90
2006,07,17,12,47,19.90
2006,07,17,12,48,19.80
2006,07,17,12,49,19.90
2006,07,17,12,50,19.80
2006,07,17,12,51,19.80
2006,07,17,12,52,19.80
2006,07,17,12,53,19.90
2006,07,17,12,54,19.90
2006,07,17,12,55,19.90
2006,07,17,12,56,19.90
2006,07,17,12,57,19.90
2006,07,17,12,58,19.90
2006,07,17,12,59,20.00
2006,07,17,13,00,20.10
2006,07,17,13,01,20.10
2006,07,17,13,02,20.20
2006,07,17,13,03,20.20
2006,07,17,13,04,20.10
2006,07,17,13,05,20.10
2006,07,17,13,06,20.20
2006,07,17,13,07,20.20
2006,07,17,13,08,20.20
2006,07,17,13,09,20.20
2006,07,17,13,10,20.10
2006,07,17,13,11,20.10
2006,07,17,13,12,20.10
2006,07,17,13,13,20.10
2006,07,17,13,14,20.10
2006,07,17,13,15,20.10
2006,07,17,13,16,20.20
2006,07,17,13,17,20.20
2006,07,17,13,18,20.30
2006,07,17,13,19,20.40
2006,07,17,13,20,20.50
2006,07,17,13,21,20.60
2006,07,17,13,22,20.60
2006,07,17,13,23,20.60
2006,07,17,13,24,20.70
2006,07,17,13,25,20.70
2006,07,17,13,26,20.80
2006,07,17,13,27,20.80
2006,07,17,13,28,20.90
2006,07,17,13,29,21.00
2006,07,17,13,30,21.10
2006,07,17,13,31,21.20
2006,07,17,13,32,21.30
2006,07,17,13,33,21.30
2006,07,17,13,34,21.40
2006,07,17,13,35,21.40
2006,07,17,13,36,21.30
2006,07,17,13,37,21.30
2006,07,17,13,38,21.20
2006,07,17,13,39,21.10
2006,07,17,13,40,21.10
2006,07,17,13,41,21.10
2006,07,17,13,42,21.10
2006,07,17,13,43,21.10
2006,07,17,13,44,21.20
2006,07,17,13,45,21.20
2006,07,17,13,46,21.20
2006,07,17,13,47,21.20
2006,07,17,13,48,21.20
2006,07,17,13,49,21.30
2006,07,17,13,50,21.30
2006,07,17,13,51,21.10
2006,07,17,13,52,20.90
2006,07,17,13,53,20.80
2006,07,17,13,54,20.80
2006,07,17,13,55,20.80
2006,07,17,13,56,20.80
2006,07,17,13,57,20.90
2006,07,17,13,58,20.90
2006,07,17,13,59,21.10
2006,07,17,14,00,21.20
2006,07,17,14,01,21.40
2006,07,17,14,02,21.40
2006,07,17,14,03,21.40
2006,07,17,14,04,21.40
2006,07,17,14,05,21.40
2006,07,17,14,06,21.50
2006,07,17,14,07,21.50
2006,07,17,14,08,21.30
2006,07,17,14,09,21.30
2006,07,17,14,10,21.20
2006,07,17,14,11,21.20
2006,07,17,14,12,21.10
2006,07,17,14,13,21.10
2006,07,17,14,14,21.10
2006,07,17,14,15,21.10
2006,07,17,14,16,21.10
2006,07,17,14,17,21.20
2006,07,17,14,18,21.00
2006,07,17,14,19,20.90
2006,07,17,14,20,20.90
2006,07,17,14,21,21.00
2006,07,17,14,22,21.00
2006,07,17,14,23,21.00
2006,07,17,14,24,20.90
2006,07,17,14,25,20.70
2006,07,17,14,26,20.60
2006,07,17,14,27,20.60
2006,07,17,14,28,20.70
2006,07,17,14,29,20.70
2006,07,17,14,30,20.70
2006,07,17,14,31,20.60
2006,07,17,14,32,20.60
2006,07,17,14,33,20.60
2006,07,17,14,34,20.60
2006,07,17,14,35,20.70
2006,07,17,14,36,20.80
2006,07,17,14,37,20.90
2006,07,17,14,38,20.90
2006,07,17,14,39,20.90
2006,07,17,14,40,20.80
2006,07,17,14,41,20.80
2006,07,17,14,42,20.90
2006,07,17,14,43,20.90
2006,07,17,14,44,20.80
2006,07,17,14,45,20.80
2006,07,17,14,46,20.80
2006,07,17,14,47,20.90
2006,07,17,14,48,20.90
2006,07,17,14,49,20.90
2006,07,17,14,50,20.90
2006,07,17,14,51,20.90
2006,07,17,14,52,20.90
2006,07,17,14,53,21.10
2006,07,17,14,54,21.20
2006,07,17,14,55,21.30
2006,07,17,14,56,21.40
2006,07,17,14,57,21.60
2006,07,17,14,58,21.50
2006,07,17,14,59,21.40
2006,07,17,15,00,21.40
2006,07,17,15,01,21.30
2006,07,17,15,02,21.20
2006,07,17,15,03,21.10
2006,07,17,15,04,21.10
2006,07,17,15,05,21.10
2006,07,17,15,06,21.10
2006,07,17,15,07,21.30
2006,07,17,15,08,21.20
2006,07,17,15,09,21.20
2006,07,17,15,10,21.30
2006,07,17,15,11,21.30
2006,07,17,15,12,21.50
2006,07,17,15,13,21.60
2006,07,17,15,14,21.60
2006,07,17,15,15,21.60
2006,07,17,15,16,21.60
2006,07,17,15,17,21.60
2006,07,17,15,18,21.60
2006,07,17,15,19,21.60
2006,07,17,15,20,21.60
2006,07,17,15,21,21.60
2006,07,17,15,22,21.60
2006,07,17,15,23,21.40
2006,07,17,15,24,21.30
2006,07,17,15,25,21.20
2006,07,17,15,26,21.10
2006,07,17,15,27,21.10
2006,07,17,15,28,21.10
2006,07,17,15,29,21.10
2006,07,17,15,30,21.20
2006,07,17,15,31,21.30
2006,07,17,15,32,21.30
2006,07,17,15,33,21.30
2006,07,17,15,34,21.30
2006,07,17,15,35,21.30
2006,07,17,15,36,21.10
2006,07,17,15,37,21.00
2006,07,17,15,38,21.00
2006,07,17,15,39,20.90
2006,07,17,15,40,20.80
2006,07,17,15,41,20.80
2006,07,17,15,42,20.80
2006,07,17,15,43,20.90
2006,07,17,15,44,20.90
2006,07,17,15,45,20.90
2006,07,17,15,46,21.00
2006,07,17,15,47,21.00
2006,07,17,15,48,21.10
2006,07,17,15,49,21.10
2006,07,17,15,50,21.10
2006,07,17,15,51,21.10
2006,07,17,15,52,21.10
2006,07,17,15,53,21.10
2006,07,17,15,54,21.00
2006,07,17,15,55,21.00
2006,07,17,15,56,21.10
2006,07,17,15,57,21.00
2006,07,17,15,58,21.00
2006,07,17,15,59,20.90
2006,07,17,16,00,20.90
2006,07,17,16,01,20.90
2006,07,17,16,02,21.00
2006,07,17,16,03,21.00
2006,07,17,16,04,21.00
2006,07,17,16,05,21.10
2006,07,17,16,06,21.00
2006,07,17,16,07,21.00
2006,07,17,16,08,21.00
2006,07,17,16,09,21.00
2006,07,17,16,10,21.10
2006,07,17,16,11,21.20
2006,07,17,16,12,21.30
2006,07,17,16,13,21.40
2006,07,17,16,14,21.60
2006,07,17,16,15,21.60
2006,07,17,16,16,21.60
2006,07,17,16,17,21.60
2006,07,17,16,18,21.60
2006,07,17,16,19,21.60
2006,07,17,16,20,21.50
2006,07,17,16,21,21.40
2006,07,17,16,22,21.30
2006,07,17,16,23,21.10
2006,07,17,16,24,21.00
2006,07,17,16,25,21.00
2006,07,17,16,26,20.90
2006,07,17,16,27,20.90
2006,07,17,16,28,20.90
2006,07,17,16,29,21.00
2006,07,17,16,30,20.90
2006,07,17,16,31,20.90
2006,07,17,16,32,20.90
2006,07,17,16,33,20.80
2006,07,17,16,34,20.80
2006,07,17,16,35,20.80
2006,07,17,16,36,20.90
2006,07,17,16,37,20.80
2006,07,17,16,38,20.80
2006,07,17,16,39,20.60
2006,07,17,16,40,20.60
2006,07,17,16,41,20.50
2006,07,17,16,42,20.50
2006,07,17,16,43,20.40
2006,07,17,16,44,20.40
2006,07,17,16,45,20.40
2006,07,17,16,46,20.40
2006,07,17,16,47,20.30
2006,07,17,16,48,20.40
2006,07,17,16,49,20.40
2006,07,17,16,50,20.40
2006,07,17,16,51,20.40
2006,07,17,16,52,20.40
2006,07,17,16,53,20.50
2006,07,17,16,54,20.50
2006,07,17,16,55,20.50
2006,07,17,16,56,20.50
2006,07,17,16,57,20.50
2006,07,17,16,58,20.30
2006,07,17,16,59,20.30
2006,07,17,17,00,20.20
2006,07,17,17,01,20.20
2006,07,17,17,02,20.20
2006,07,17,17,03,20.20
2006,07,17,17,04,20.10
2006,07,17,17,05,20.10
2006,07,17,17,06,20.00
2006,07,17,17,07,20.00
2006,07,17,17,08,20.10
2006,07,17,17,09,20.10
2006,07,17,17,10,20.20
2006,07,17,17,11,20.20
2006,07,17,17,12,20.20
2006,07,17,17,13,20.20
2006,07,17,17,14,20.20
2006,07,17,17,15,20.20
2006,07,17,17,16,20.10
2006,07,17,17,17,20.00
2006,07,17,17,18,19.90
2006,07,17,17,19,19.90